{"data":{"norad_id":43174,"epoch":"2026-09-19T20:17:54.674880Z","epoch_age_seconds":82288,"freshness":"FRESH","line1":"1 43174U 18012A   26262.84577170 -.00000159  00000+0  00000+0 0  9992","line2":"2 43174   1.7892  81.8228 0003513  94.1463 107.1803  1.00272041 31793","mean_motion":1.00272041,"eccentricity":0.0003513,"inclination_deg":1.7892,"raan_deg":81.8228,"arg_perigee_deg":94.1463,"mean_anomaly_deg":107.1803,"bstar":0,"rev_number":3179,"period_min":1436.0932375955,"perigee_km":35771.710750124,"apogee_km":35801.335640377,"semimajor_km":42164.66019525,"source":"CELESTRAK","updated_at":"2026-09-20T09:00:35.258360Z"}}